Weather History for Wright-Patt AFB, OH

Change the Weather History Date:

Tuesday, March 26, 2013

  Actual Average Record
Temperature  
Mean Temperature 35 °F -  
Max Temperature 40 °F 54 °F 76 °F (2007)
Min Temperature 31 °F 33 °F 12 °F (2014)
Degree Days  
Heating Degree Days 30    
Moisture  
Dew Point 28 °F    
Average Humidity 78    
Maximum Humidity 93    
Minimum Humidity 54    
Precipitation  
Precipitation 0.02 in - - ()
Snow  
Snow 0.00 in - - ()
Snow Depth 4.00 in    
Sea Level Pressure  
Sea Level Pressure 30.09 in    
Wind  
Wind Speed 10 mph (WNW)    
Max Wind Speed 14 mph    
Max Gust Speed 18 mph    
Visibility 10 miles    
Events Snow    
Averages and records for this station are not official NWS values.
T = Trace of Precipitation, MM = Missing Value Source: NWS Daily Summary

Daily Weather History Graph

Daily Weather History Graph

Search for Another Location

Airport:

Trip Planner

Search our weather history database for the weather conditions in past years. The results will help you decide how hot, cold, wet, or windy it might be!

Date:

Astronomy

Mar. 26, 2013 Rise Set
Actual Time 7:29 AM EDT 7:54 PM EDT
Civil Twilight 7:02 AM EDT 8:21 PM EDT
Nautical Twilight 6:30 AM EDT 8:53 PM EDT
Astronomical Twilight 5:58 AM EDT 9:26 PM EDT
Moon 7:30 PM EDT (3/26) 6:45 AM EDT (3/26)
Length of Visible Light 13h 19m
Length of Day
12h 25m
Waxing Gibbous, 99% of the Moon is Illuminated
Mar 26
Waxing Gibbous
Mar 27
Full
Apr 3
Last Quarter
Apr 10
New
Apr 18
First Quarter

Hourly Weather History & Observations

Time (EDT) Temp. Windchill Dew Point Humidity Pressure Visibility Wind Dir Wind Speed Gust Speed Precip Events Conditions
12:55 AM 32.7 °F 23.9 °F 29.3 °F 87% 29.95 in 10.0 mi WNW 11.5 mph - 0.00 in   Overcast
1:35 AM 32.0 °F 23.6 °F 28.4 °F 87% 29.96 in 8.0 mi WNW 10.4 mph - N/A Snow Light Snow
1:55 AM 32.7 °F 25.0 °F 28.9 °F 86% 29.96 in 10.0 mi WNW 9.2 mph - 0.00 in Snow Light Snow
2:19 AM 32.0 °F 24.8 °F 28.4 °F 87% 29.97 in 8.0 mi WNW 8.1 mph - N/A Snow Light Snow
2:21 AM 32.0 °F 24.2 °F 30.2 °F 93% 29.97 in 9.0 mi WNW 9.2 mph - N/A Snow Light Snow
2:23 AM 32.0 °F 24.8 °F 28.4 °F 87% 29.97 in 9.0 mi NW 8.1 mph - N/A Snow Light Snow
2:55 AM 32.4 °F 24.6 °F 29.3 °F 88% 29.97 in 9.0 mi WNW 9.2 mph - 0.00 in Snow Light Snow
3:55 AM 32.2 °F 24.4 °F 29.1 °F 88% 29.98 in 10.0 mi WNW 9.2 mph - 0.00 in Snow Light Snow
4:55 AM 32.0 °F 24.8 °F 28.8 °F 88% 29.99 in 10.0 mi WNW 8.1 mph - 0.00 in Snow Light Snow
5:55 AM 31.6 °F 26.0 °F 28.6 °F 88% 30.00 in 10.0 mi NW 5.8 mph - 0.00 in Snow Light Snow
6:55 AM 31.6 °F 27.0 °F 28.8 °F 89% 30.02 in 10.0 mi WNW 4.6 mph - 0.00 in Snow Light Snow
7:27 AM 32.0 °F 25.6 °F 28.4 °F 87% 30.03 in 10.0 mi WNW 6.9 mph - N/A   Overcast
7:28 AM 32.0 °F 25.6 °F 28.4 °F 87% 30.04 in 10.0 mi NW 6.9 mph - N/A   Light Freezing Drizzle
7:55 AM 31.5 °F 25.8 °F 28.6 °F 89% 30.05 in 5.0 mi WNW 5.8 mph - 0.00 in Snow Light Snow
8:41 AM 32.0 °F 26.4 °F 28.4 °F 87% 30.06 in 7.0 mi WNW 5.8 mph - N/A   Overcast
8:55 AM 31.8 °F 24.6 °F 28.4 °F 87% 30.07 in 7.0 mi WNW 8.1 mph - 0.00 in   Overcast
9:40 AM 32.0 °F 24.2 °F 28.4 °F 87% 30.09 in 10.0 mi WNW 9.2 mph - N/A   Overcast
9:44 AM 33.8 °F 26.4 °F 28.4 °F 81% 30.09 in 10.0 mi NW 9.2 mph - N/A   Overcast
9:55 AM 33.1 °F 25.5 °F 28.6 °F 84% 30.09 in 10.0 mi NW 9.2 mph - N/A   Overcast
10:15 AM 33.8 °F 25.8 °F 28.4 °F 81% 30.10 in 10.0 mi NW 10.4 mph - N/A   Overcast
10:19 AM 33.8 °F 25.3 °F 28.4 °F 81% 30.10 in 10.0 mi WNW 11.5 mph - N/A   Overcast
10:29 AM 33.8 °F 25.3 °F 28.4 °F 81% 30.10 in 10.0 mi WNW 11.5 mph - N/A   Overcast
10:34 AM 33.8 °F 25.8 °F 28.4 °F 81% 30.10 in 10.0 mi WNW 10.4 mph - N/A   Overcast
10:55 AM 34.2 °F 26.2 °F 28.0 °F 78% 30.11 in 10.0 mi NW 10.4 mph - N/A   Overcast
11:55 AM 35.8 °F 28.8 °F 27.9 °F 73% 30.12 in 10.0 mi WNW 9.2 mph - N/A   Overcast
12:55 PM 36.7 °F 30.5 °F 27.7 °F 70% 30.13 in 10.0 mi NW 8.1 mph - N/A   Overcast
1:05 PM 37.4 °F 30.3 °F 28.4 °F 70% 30.13 in 10.0 mi NW 10.4 mph - N/A   Overcast
1:55 PM 38.1 °F 29.8 °F 27.1 °F 65% 30.13 in 10.0 mi WNW 13.8 mph - N/A   Mostly Cloudy
2:04 PM 39.2 °F 32.0 °F 26.6 °F 61% 30.14 in 10.0 mi WNW 11.5 mph - N/A   Overcast
2:55 PM 38.7 °F 31.4 °F 26.8 °F 62% 30.14 in 10.0 mi West 11.5 mph - N/A   Mostly Cloudy
3:55 PM 38.1 °F 30.7 °F 27.3 °F 65% 30.14 in 10.0 mi WNW 11.5 mph - N/A   Mostly Cloudy
4:55 PM 38.5 °F 30.3 °F 25.5 °F 60% 30.14 in 10.0 mi West 13.8 mph - N/A   Mostly Cloudy
5:55 PM 39.2 °F 31.2 °F 23.7 °F 54% 30.14 in 10.0 mi WNW 13.8 mph - N/A   Scattered Clouds
6:55 PM 38.7 °F 32.4 °F 25.5 °F 59% 30.16 in 10.0 mi West 9.2 mph 18.4 mph N/A   Partly Cloudy
7:13 PM 37.4 °F 29.8 °F 26.6 °F 65% 30.17 in 10.0 mi West 11.5 mph - N/A   Mostly Cloudy
7:33 PM 37.4 °F 28.9 °F 26.6 °F 65% 30.18 in 10.0 mi West 13.8 mph - N/A   Mostly Cloudy
7:55 PM 36.3 °F 28.9 °F 27.1 °F 69% 30.19 in 10.0 mi West 10.4 mph - N/A   Mostly Cloudy
8:55 PM 35.2 °F 27.6 °F 26.4 °F 70% 30.20 in 10.0 mi West 10.4 mph - N/A   Overcast
9:55 PM 35.2 °F 27.6 °F 25.3 °F 67% 30.22 in 10.0 mi West 10.4 mph - N/A   Overcast
10:55 PM 34.2 °F 25.2 °F 25.5 °F 71% 30.22 in 10.0 mi West 12.7 mph - N/A   Overcast
11:55 PM 32.9 °F 25.9 °F 25.5 °F 74% 30.23 in 10.0 mi West 8.1 mph - N/A   Overcast